| time (UTC) | temp F | wind direction | speed MPH | gust MPH | rain 1hr in | rain 24hr in | rain mn in | humidity % | barometer mb |
| 20260906195030 | 94 | 218 | 2.0 | 7.0 | 0.00 | 0.04 | 0.00 | 63 | 1007.4 |
| 20260906194529 | 94 | 103 | 1.0 | 7.0 | 0.00 | 0.04 | 0.00 | 63 | 1007.4 |
| 20260906194504 | 94 | 119 | 1.0 | 7.0 | 0.00 | 0.78 | 0.00 | 65 | 1007.2 |
| 20260906194030 | 95 | 90 | 1.0 | 3.0 | 0.00 | 0.04 | 0.00 | 62 | 1007.8 |
| 20260906193530 | 96 | 212 | 1.0 | 6.0 | 0.00 | 0.04 | 0.00 | 61 | 1007.8 |
| 20260906193036 | 95 | 213 | 1.0 | 6.0 | 0.00 | 0.78 | 0.00 | 64 | 1007.7 |
| 20260906193031 | 95 | 213 | 2.0 | 6.0 | 0.00 | 0.04 | 0.00 | 64 | 1007.8 |
| 20260906192531 | 95 | 220 | 3.0 | 8.0 | 0.00 | 0.04 | 0.00 | 62 | 1008.1 |
| 20260906192031 | 95 | 171 | 2.0 | 8.0 | 0.00 | 0.04 | 0.00 | 64 | 1008.1 |
| 20260906191535 | 93 | 205 | 2.0 | 5.0 | 0.00 | 0.78 | 0.00 | 65 | 1008.0 |
| 20260906191531 | 94 | 151 | 1.0 | 5.0 | 0.00 | 0.04 | 0.00 | 65 | 1008.1 |
| 20260906191030 | 93 | 120 | 1.0 | 4.0 | 0.00 | 0.04 | 0.00 | 69 | 1008.4 |
| 20260906190824 | 94 | 123 | 1.0 | 4.0 | 0.00 | 0.04 | 0.00 | 64 | 1008.4 |
| 20260906190032 | 95 | 224 | 1.0 | 4.0 | 0.00 | 0.04 | 0.00 | 62 | 1008.4 |
| 20260906190028 | 94 | 224 | 1.0 | 4.0 | 0.00 | 0.78 | 0.00 | 62 | 1008.3 |
| 20260906185531 | 95 | 224 | 1.0 | 4.0 | 0.00 | 0.04 | 0.00 | 62 | 1008.6 |
| 20260906185030 | 96 | 288 | 1.0 | 4.0 | 0.00 | 0.04 | 0.00 | 62 | 1008.6 |
| 20260906184530 | 95 | 252 | 1.0 | 4.0 | 0.00 | 0.04 | 0.00 | 62 | 1008.6 |
| 20260906184511 | 95 | 245 | 0.0 | 4.0 | 0.00 | 0.78 | 0.00 | 63 | 1008.5 |
| 20260906184034 | 94 | 223 | 2.0 | 7.0 | 0.00 | 0.04 | 0.00 | 63 | 1008.8 |
| 20260906183534 | 94 | 221 | 2.0 | 7.0 | 0.00 | 0.04 | 0.00 | 65 | 1008.8 |
| 20260906183032 | 94 | 284 | 1.0 | 6.0 | 0.00 | 0.04 | 0.00 | 68 | 1008.8 |
| 20260906183007 | 94 | 325 | 0.0 | 6.0 | 0.00 | 0.78 | 0.00 | 68 | 1008.7 |
| 20260906182816 | 94 | 5 | 2.0 | 6.0 | 0.00 | 0.04 | 0.00 | 64 | 1008.9 |
| 20260906182028 | 95 | 310 | 2.0 | 7.0 | 0.00 | 0.04 | 0.00 | 62 | 1008.9 |
| 20260906181528 | 95 | 271 | 2.0 | 7.0 | 0.00 | 0.04 | 0.00 | 63 | 1008.9 |
| 20260906181514 | 95 | 223 | 2.0 | 7.0 | 0.00 | 0.78 | 0.00 | 63 | 1008.8 |
| 20260906181030 | 95 | 227 | 1.0 | 7.0 | 0.00 | 0.04 | 0.00 | 66 | 1008.9 |
| 20260906180526 | 94 | 257 | 1.0 | 5.0 | 0.00 | 0.04 | 0.00 | 68 | 1008.9 |
| 20260906180026 | 93 | 252 | 1.0 | 5.0 | 0.00 | 0.04 | 0.00 | 67 | 1008.9 |
| 20260906180003 | 93 | 273 | 0.0 | 4.0 | 0.00 | 0.78 | 0.00 | 67 | 1008.8 |
| 20260906175527 | 94 | 315 | 2.0 | 7.0 | 0.00 | 0.04 | 0.00 | 66 | 1008.9 |
| 20260906175026 | 94 | 240 | 2.0 | 7.0 | 0.00 | 0.04 | 0.00 | 66 | 1008.9 |
| 20260906174614 | 93 | 231 | 1.0 | 6.0 | 0.00 | 0.78 | 0.00 | 69 | 1008.8 |
| 20260906174520 | 94 | 324 | 2.0 | 6.0 | 0.00 | 0.04 | 0.00 | 68 | 1008.9 |
| 20260906174015 | 93 | 339 | 3.0 | 9.0 | 0.00 | 0.04 | 0.00 | 66 | 1008.9 |
| 20260906173513 | 94 | 310 | 3.0 | 9.0 | 0.00 | 0.04 | 0.00 | 67 | 1008.9 |
| 20260906173043 | 93 | 338 | 3.0 | 7.0 | 0.00 | 0.78 | 0.00 | 68 | 1008.8 |
| 20260906173013 | 94 | 328 | 3.0 | 8.0 | 0.00 | 0.04 | 0.00 | 68 | 1008.9 |
| 20260906172800 | 93 | 281 | 3.0 | 8.0 | 0.00 | 0.04 | 0.00 | 70 | 1008.9 |
| 20260906172015 | 94 | 287 | 2.0 | 7.0 | 0.00 | 0.04 | 0.00 | 68 | 1008.9 |
| 20260906171533 | 94 | 224 | 1.0 | 7.0 | 0.00 | 0.78 | 0.00 | 69 | 1008.8 |
| 20260906171502 | 94 | 285 | 2.0 | 7.0 | 0.00 | 0.04 | 0.00 | 69 | 1008.9 |
| 20260906171255 | 94 | 301 | 2.0 | 6.0 | 0.00 | 0.04 | 0.00 | 69 | 1009.0 |
| 20260906170501 | 94 | 318 | 2.0 | 5.0 | 0.00 | 0.04 | 0.00 | 69 | 1009.0 |
| 20260906170010 | 93 | 269 | 0.0 | 6.0 | 0.00 | 0.78 | 0.00 | 71 | 1008.9 |
| 20260906170005 | 94 | 269 | 2.0 | 6.0 | 0.00 | 0.04 | 0.00 | 71 | 1009.0 |
| 20260906165503 | 93 | 262 | 2.0 | 8.0 | 0.00 | 0.04 | 0.00 | 72 | 1009.4 |
| 20260906165002 | 93 | 294 | 2.0 | 8.0 | 0.00 | 0.04 | 0.00 | 72 | 1009.4 |
| 20260906164509 | 92 | 194 | 1.0 | 5.0 | 0.00 | 0.78 | 0.00 | 73 | 1009.2 |
| 20260906164502 | 92 | 194 | 2.0 | 6.0 | 0.00 | 0.04 | 0.00 | 73 | 1009.4 |
| 20260906164002 | 92 | 16 | 3.0 | 7.0 | 0.00 | 0.04 | 0.00 | 72 | 1009.4 |
| 20260906163503 | 92 | 299 | 3.0 | 7.0 | 0.00 | 0.04 | 0.00 | 74 | 1009.4 |
| 20260906163008 | 92 | 348 | 2.0 | 6.0 | 0.00 | 0.78 | 0.00 | 73 | 1009.3 |
| 20260906163003 | 92 | 348 | 2.0 | 6.0 | 0.00 | 0.04 | 0.00 | 73 | 1009.4 |
| 20260906162503 | 93 | 247 | 2.0 | 5.0 | 0.00 | 0.04 | 0.00 | 75 | 1009.5 |
| 20260906162250 | 92 | 221 | 2.0 | 4.0 | 0.00 | 0.04 | 0.00 | 74 | 1009.5 |
| 20260906161515 | 91 | 294 | 1.0 | 5.0 | 0.00 | 0.78 | 0.00 | 74 | 1009.4 |
| 20260906161503 | 92 | 294 | 2.0 | 5.0 | 0.00 | 0.04 | 0.00 | 74 | 1009.5 |
| 20260906161003 | 91 | 20 | 2.0 | 5.0 | 0.00 | 0.04 | 0.00 | 76 | 1009.8 |
| 20260906160502 | 92 | 294 | 2.0 | 7.0 | 0.00 | 0.04 | 0.00 | 76 | 1009.8 |
| 20260906160005 | 91 | 239 | 2.0 | 7.0 | 0.00 | 0.04 | 0.00 | 76 | 1009.8 |
| 20260906160002 | 91 | 227 | 2.0 | 7.0 | 0.00 | 0.78 | 0.00 | 76 | 1009.7 |
| 20260906155502 | 91 | 259 | 2.0 | 5.0 | 0.00 | 0.04 | 0.00 | 78 | 1010.0 |
| 20260906155002 | 91 | 277 | 2.0 | 5.0 | 0.00 | 0.04 | 0.00 | 78 | 1010.0 |
| 20260906154549 | 90 | 288 | 1.0 | 5.0 | 0.00 | 0.78 | 0.00 | 77 | 1009.9 |
| 20260906154501 | 90 | 281 | 2.0 | 5.0 | 0.00 | 0.04 | 0.00 | 77 | 1010.0 |
| 20260906154251 | 90 | 274 | 2.0 | 5.0 | 0.00 | 0.04 | 0.00 | 78 | 1010.2 |
| 20260906153504 | 90 | 247 | 1.0 | 4.0 | 0.00 | 0.04 | 0.00 | 78 | 1010.2 |
| 20260906153041 | 89 | 301 | 0.0 | 4.0 | 0.00 | 0.78 | 0.00 | 80 | 1010.1 |
| 20260906153003 | 90 | 247 | 2.0 | 5.0 | 0.00 | 0.04 | 0.00 | 80 | 1010.2 |
| 20260906152501 | 89 | 273 | 2.0 | 5.0 | 0.00 | 0.04 | 0.00 | 79 | 1010.3 |
| 20260906152001 | 90 | 299 | 1.0 | 6.0 | 0.00 | 0.04 | 0.00 | 81 | 1010.3 |
| 20260906151754 | 89 | 337 | 1.0 | 6.0 | 0.00 | 0.04 | 0.00 | 80 | 1010.3 |
| 20260906151002 | 89 | 267 | 1.0 | 4.0 | 0.00 | 0.04 | 0.00 | 81 | 1010.5 |
| 20260906150501 | 89 | 228 | 1.0 | 4.0 | 0.00 | 0.04 | 0.00 | 81 | 1010.5 |
| 20260906150037 | 88 | 266 | 1.0 | 4.0 | 0.00 | 0.78 | 0.00 | 82 | 1010.3 |
| 20260906150003 | 88 | 236 | 1.0 | 4.0 | 0.00 | 0.04 | 0.00 | 82 | 1010.5 |
| 20260906145502 | 87 | 346 | 1.0 | 4.0 | 0.00 | 0.04 | 0.00 | 83 | 1010.5 |
| 20260906145247 | 87 | 18 | 1.0 | 4.0 | 0.00 | 0.04 | 0.00 | 82 | 1010.5 |
| 20260906144534 | 87 | 329 | 0.0 | 3.0 | 0.00 | 0.78 | 0.00 | 83 | 1010.3 |
| 20260906144502 | 87 | 324 | 1.0 | 3.0 | 0.00 | 0.04 | 0.00 | 83 | 1010.5 |
| 20260906144001 | 86 | 283 | 2.0 | 4.0 | 0.00 | 0.04 | 0.00 | 84 | 1010.3 |
| 20260906143800 | 86 | 355 | 2.0 | 4.0 | 0.00 | 0.04 | 0.00 | 84 | 1010.3 |
| 20260906143033 | 85 | 296 | 1.0 | 4.0 | 0.00 | 0.78 | 0.00 | 84 | 1010.2 |
| 20260906143001 | 86 | 271 | 2.0 | 4.0 | 0.00 | 0.04 | 0.00 | 84 | 1010.3 |
| 20260906142503 | 85 | 258 | 2.0 | 6.0 | 0.00 | 0.04 | 0.00 | 85 | 1010.1 |
| 20260906142002 | 85 | 251 | 2.0 | 6.0 | 0.00 | 0.04 | 0.00 | 84 | 1010.1 |
| 20260906141531 | 85 | 276 | 1.0 | 4.0 | 0.00 | 0.78 | 0.00 | 85 | 1010.0 |
| 20260906141502 | 85 | 275 | 1.0 | 4.0 | 0.00 | 0.04 | 0.00 | 85 | 1010.1 |
| 20260906141256 | 85 | 218 | 1.0 | 3.0 | 0.00 | 0.04 | 0.00 | 86 | 1010.2 |
| 20260906140501 | 84 | 231 | 1.0 | 3.0 | 0.00 | 0.04 | 0.00 | 87 | 1010.2 |
| 20260906140035 | 83 | 221 | 1.0 | 5.0 | 0.00 | 0.78 | 0.00 | 87 | 1010.1 |
| 20260906140001 | 83 | 250 | 1.0 | 5.0 | 0.00 | 0.04 | 0.00 | 87 | 1010.2 |
| 20260906135502 | 83 | 298 | 1.0 | 5.0 | 0.00 | 0.04 | 0.00 | 86 | 1010.2 |
| 20260906135002 | 83 | 280 | 1.0 | 4.0 | 0.00 | 0.04 | 0.00 | 87 | 1010.2 |
| 20260906134755 | 82 | 221 | 1.0 | 5.0 | 0.00 | 0.04 | 0.00 | 87 | 1010.2 |
| 20260906134001 | 82 | 263 | 1.0 | 5.0 | 0.00 | 0.04 | 0.00 | 87 | 1010.5 |
| 20260906133755 | 82 | 246 | 1.0 | 4.0 | 0.00 | 0.04 | 0.00 | 88 | 1010.5 |
| 20260906133035 | 81 | 238 | 1.0 | 3.0 | 0.00 | 0.78 | 0.00 | 88 | 1010.3 |
| 20260906133001 | 82 | 261 | 1.0 | 4.0 | 0.00 | 0.04 | 0.00 | 88 | 1010.5 |
| 20260906132500 | 81 | 300 | 1.0 | 4.0 | 0.00 | 0.04 | 0.00 | 88 | 1010.3 |
| 20260906132002 | 81 | 284 | 1.0 | 4.0 | 0.00 | 0.04 | 0.00 | 88 | 1010.3 |
| 20260906131527 | 80 | 210 | 0.0 | 5.0 | 0.00 | 0.78 | 0.00 | 89 | 1010.2 |
| 20260906131502 | 80 | 227 | 1.0 | 5.0 | 0.00 | 0.04 | 0.00 | 89 | 1010.3 |
| 20260906131001 | 80 | 284 | 2.0 | 6.0 | 0.00 | 0.04 | 0.00 | 88 | 1010.5 |
| 20260906130500 | 80 | 254 | 2.0 | 6.0 | 0.00 | 0.04 | 0.00 | 89 | 1010.5 |
| 20260906130013 | 79 | 201 | 0.0 | 6.0 | 0.00 | 0.78 | 0.00 | 89 | 1010.3 |
| 20260906130003 | 80 | 213 | 2.0 | 6.0 | 0.00 | 0.04 | 0.00 | 89 | 1010.5 |
| 20260906125504 | 79 | 218 | 2.0 | 4.0 | 0.00 | 0.04 | 0.00 | 89 | 1010.5 |
| 20260906125255 | 79 | 193 | 1.0 | 4.0 | 0.00 | 0.04 | 0.00 | 89 | 1010.5 |
| 20260906124507 | 78 | 221 | 0.0 | 4.0 | 0.00 | 0.78 | 0.00 | 90 | 1010.3 |
| 20260906124502 | 79 | 221 | 1.0 | 6.0 | 0.00 | 0.04 | 0.00 | 90 | 1010.5 |
| 20260906124002 | 78 | 266 | 2.0 | 6.0 | 0.00 | 0.04 | 0.00 | 90 | 1010.4 |
| 20260906123503 | 78 | 241 | 2.0 | 5.0 | 0.00 | 0.04 | 0.00 | 90 | 1010.4 |
| 20260906123015 | 78 | 220 | 1.0 | 5.0 | 0.00 | 0.78 | 0.00 | 91 | 1010.2 |
| 20260906123002 | 78 | 225 | 2.0 | 5.0 | 0.00 | 0.04 | 0.00 | 91 | 1010.4 |
| 20260906122503 | 78 | 216 | 2.0 | 5.0 | 0.00 | 0.04 | 0.00 | 91 | 1010.1 |
| 20260906122001 | 77 | 242 | 1.0 | 4.0 | 0.00 | 0.04 | 0.00 | 92 | 1010.1 |
| 20260906121521 | 77 | 225 | 0.0 | 3.0 | 0.00 | 0.78 | 0.00 | 92 | 1010.0 |
| 20260906121502 | 77 | 223 | 0.0 | 3.0 | 0.00 | 0.04 | 0.00 | 92 | 1010.1 |
| 20260906121002 | 77 | 248 | 0.0 | 4.0 | 0.00 | 0.04 | 0.00 | 92 | 1010.0 |
| 20260906120503 | 77 | 225 | 1.0 | 4.0 | 0.00 | 0.04 | 0.00 | 93 | 1010.0 |
| 20260906120008 | 76 | 232 | 0.0 | 4.0 | 0.00 | 0.78 | 0.00 | 93 | 1009.9 |
| 20260906120003 | 76 | 232 | 1.0 | 4.0 | 0.00 | 0.04 | 0.00 | 93 | 1010.0 |
| 20260906115503 | 76 | 221 | 1.0 | 3.0 | 0.00 | 0.04 | 0.00 | 93 | 1009.9 |
| 20260906115246 | 75 | 227 | 0.0 | 3.0 | 0.00 | 0.04 | 0.00 | 93 | 1009.9 |
| 20260906114517 | 75 | 223 | 0.0 | 2.0 | 0.00 | 0.78 | 0.00 | 93 | 1009.8 |
| 20260906114503 | 75 | 224 | 0.0 | 2.0 | 0.00 | 0.04 | 0.00 | 93 | 1009.9 |
| 20260906114002 | 75 | 224 | 0.0 | 1.0 | 0.00 | 0.04 | 0.00 | 93 | 1009.6 |
| 20260906113502 | 75 | 224 | 0.0 | 1.0 | 0.00 | 0.04 | 0.00 | 93 | 1009.6 |
| 20260906113009 | 74 | 229 | 0.0 | 1.0 | 0.00 | 0.78 | 0.00 | 93 | 1009.5 |
| 20260906113004 | 75 | 229 | 0.0 | 1.0 | 0.00 | 0.04 | 0.00 | 93 | 1009.6 |
| 20260906112503 | 75 | 226 | 0.0 | 1.0 | 0.00 | 0.04 | 0.00 | 93 | 1009.4 |
| 20260906112002 | 75 | 225 | 0.0 | 1.0 | 0.00 | 0.04 | 0.00 | 93 | 1009.4 |
| 20260906111509 | 74 | 226 | 0.0 | 3.0 | 0.00 | 0.78 | 0.00 | 93 | 1009.3 |
| 20260906111503 | 75 | 225 | 0.0 | 3.0 | 0.00 | 0.04 | 0.00 | 93 | 1009.4 |
| 20260906111003 | 75 | 221 | 0.0 | 3.0 | 0.00 | 0.04 | 0.00 | 93 | 1009.2 |
| 20260906110503 | 75 | 225 | 0.0 | 1.0 | 0.00 | 0.04 | 0.00 | 93 | 1009.2 |
| 20260906110007 | 74 | 225 | 0.0 | 2.0 | 0.00 | 0.78 | 0.00 | 93 | 1009.1 |
| 20260906110002 | 75 | 225 | 0.0 | 2.0 | 0.00 | 0.04 | 0.00 | 93 | 1009.2 |
| 20260906105502 | 75 | 227 | 0.0 | 2.0 | 0.00 | 0.04 | 0.00 | 93 | 1008.9 |
| 20260906105002 | 75 | 214 | 0.0 | 1.0 | 0.00 | 0.04 | 0.00 | 93 | 1008.9 |
| 20260906104508 | 74 | 214 | 0.0 | 1.0 | 0.00 | 0.78 | 0.00 | 93 | 1008.8 |
| 20260906104502 | 75 | 214 | 0.0 | 1.0 | 0.00 | 0.04 | 0.00 | 93 | 1008.9 |
| 20260906104249 | 75 | 214 | 0.0 | 1.0 | 0.00 | 0.04 | 0.00 | 93 | 1008.8 |
| 20260906103504 | 75 | 214 | 0.0 | 1.0 | 0.00 | 0.04 | 0.00 | 93 | 1008.8 |
| 20260906103015 | 74 | 214 | 0.0 | 0.0 | 0.00 | 0.78 | 0.00 | 93 | 1008.6 |
| 20260906103008 | 74 | 214 | 0.0 | 0.0 | 0.00 | 0.04 | 0.00 | 93 | 1008.8 |
| 20260906102505 | 75 | 214 | 0.0 | 0.0 | 0.00 | 0.04 | 0.00 | 93 | 1008.5 |
| 20260906102004 | 75 | 214 | 0.0 | 0.0 | 0.00 | 0.04 | 0.00 | 93 | 1008.5 |
| 20260906101507 | 74 | 214 | 0.0 | 1.0 | 0.00 | 0.78 | 0.00 | 93 | 1008.3 |
| 20260906101502 | 75 | 214 | 0.0 | 1.0 | 0.00 | 0.04 | 0.00 | 93 | 1008.5 |
| 20260906101041 | 74 | 238 | 0.0 | 0.0 | 0.00 | 0.04 | 0.00 | 93 | 1008.5 |
| 20260906101031 | 75 | 214 | 0.0 | 1.0 | 0.00 | 0.04 | 0.00 | 93 | 1008.5 |
| 20260906100012 | 74 | 238 | 0.0 | 0.0 | 0.00 | 0.78 | 0.00 | 93 | 1008.4 |
| 20260906100004 | 74 | 238 | 0.0 | 0.0 | 0.00 | 0.04 | 0.00 | 93 | 1008.5 |
| 20260906095504 | 75 | 238 | 0.0 | 1.0 | 0.00 | 0.04 | 0.00 | 93 | 1008.4 |
| 20260906095252 | 75 | 238 | 0.0 | 1.0 | 0.00 | 0.04 | 0.00 | 93 | 1008.4 |
| 20260906094557 | 74 | 238 | 0.0 | 2.0 | 0.00 | 0.78 | 0.00 | 93 | 1008.2 |
| 20260906094502 | 74 | 238 | 0.0 | 2.0 | 0.00 | 0.04 | 0.00 | 93 | 1008.4 |
| 20260906094001 | 74 | 237 | 0.0 | 2.0 | 0.00 | 0.04 | 0.00 | 93 | 1007.9 |
| 20260906093501 | 74 | 231 | 0.0 | 1.0 | 0.00 | 0.04 | 0.00 | 93 | 1007.9 |
| 20260906093033 | 74 | 232 | 0.0 | 1.0 | 0.00 | 0.78 | 0.00 | 93 | 1007.8 |
| 20260906093002 | 74 | 232 | 0.0 | 1.0 | 0.00 | 0.04 | 0.00 | 93 | 1007.9 |
| 20260906092551 | 74 | 232 | 0.0 | 1.0 | 0.00 | 0.04 | 0.00 | 93 | 1007.8 |
| 20260906092534 | 74 | 232 | 0.0 | 1.0 | 0.00 | 0.04 | 0.00 | 93 | 1007.8 |
| 20260906091522 | 74 | 232 | 0.0 | 1.0 | 0.00 | 0.78 | 0.00 | 93 | 1007.7 |
| 20260906091501 | 74 | 232 | 0.0 | 1.0 | 0.00 | 0.04 | 0.00 | 93 | 1007.8 |
| 20260906091001 | 74 | 229 | 0.0 | 2.0 | 0.00 | 0.04 | 0.00 | 93 | 1007.5 |
| 20260906090504 | 74 | 232 | 0.0 | 2.0 | 0.00 | 0.04 | 0.00 | 93 | 1007.5 |
| 20260906090330 | 74 | 220 | 0.0 | 1.0 | 0.00 | 0.04 | 0.00 | 92 | 1007.8 |
| 20260906090030 | 74 | 248 | 0.0 | 1.0 | 0.00 | 0.04 | 0.00 | 93 | 1007.5 |
| 20260906090001 | 74 | 231 | 0.0 | 1.0 | 0.00 | 0.78 | 0.00 | 93 | 1007.7 |
| 20260906085002 | 74 | 246 | 0.0 | 1.0 | 0.00 | 0.04 | 0.00 | 92 | 1007.8 |
| 20260906084510 | 74 | 263 | 0.0 | 0.0 | 0.00 | 0.78 | 0.00 | 92 | 1007.7 |
| 20260906084502 | 75 | 263 | 0.0 | 0.0 | 0.00 | 0.04 | 0.00 | 92 | 1007.8 |
| 20260906084247 | 75 | 242 | 0.0 | 0.0 | 0.00 | 0.04 | 0.00 | 92 | 1007.9 |
| 20260906083746 | 75 | 242 | 0.0 | 0.0 | 0.00 | 0.04 | 0.00 | 92 | 1007.9 |
| 20260906083009 | 74 | 242 | 0.0 | 0.0 | 0.00 | 0.78 | 0.00 | 92 | 1007.8 |
| 20260906083004 | 75 | 242 | 0.0 | 0.0 | 0.00 | 0.04 | 0.00 | 92 | 1007.9 |
| 20260906082503 | 75 | 242 | 0.0 | 0.0 | 0.00 | 0.04 | 0.00 | 92 | 1007.8 |
| 20260906082001 | 75 | 242 | 0.0 | 1.0 | 0.00 | 0.04 | 0.00 | 92 | 1007.8 |
| 20260906081541 | 75 | 242 | 0.0 | 1.0 | 0.00 | 0.78 | 0.00 | 92 | 1007.7 |
| 20260906081501 | 75 | 242 | 0.0 | 1.0 | 0.00 | 0.04 | 0.00 | 92 | 1007.8 |
| 20260906081002 | 75 | 242 | 0.0 | 1.0 | 0.00 | 0.04 | 0.00 | 92 | 1007.9 |
| 20260906080501 | 75 | 242 | 0.0 | 1.0 | 0.00 | 0.04 | 0.00 | 92 | 1007.9 |
| 20260906080251 | 75 | 242 | 0.0 | 1.0 | 0.00 | 0.04 | 0.00 | 92 | 1007.9 |
| 20260906075502 | 75 | 242 | 0.0 | 1.0 | 0.00 | 0.04 | 0.00 | 92 | 1007.7 |
| 20260906075002 | 75 | 242 | 0.0 | 1.0 | 0.00 | 0.04 | 0.00 | 92 | 1007.7 |
| 20260906074515 | 75 | 242 | 0.0 | 1.0 | 0.00 | 0.78 | 0.00 | 92 | 1007.6 |
| 20260906074501 | 75 | 242 | 0.0 | 1.0 | 0.00 | 0.04 | 0.00 | 92 | 1007.7 |
| 20260906074004 | 75 | 254 | 0.0 | 1.0 | 0.00 | 0.04 | 0.00 | 92 | 1007.9 |
| 20260906073501 | 75 | 267 | 0.0 | 1.0 | 0.00 | 0.04 | 0.00 | 92 | 1007.9 |
| 20260906073050 | 75 | 271 | 0.0 | 2.0 | 0.00 | 0.78 | 0.00 | 92 | 1007.8 |
| 20260906073001 | 75 | 271 | 0.0 | 2.0 | 0.00 | 0.04 | 0.00 | 92 | 1007.9 |
| 20260906072501 | 75 | 263 | 0.0 | 2.0 | 0.00 | 0.04 | 0.00 | 92 | 1008.1 |
| 20260906072001 | 75 | 250 | 0.0 | 1.0 | 0.00 | 0.04 | 0.00 | 92 | 1008.1 |
| 20260906071532 | 75 | 250 | 0.0 | 1.0 | 0.00 | 0.78 | 0.00 | 92 | 1008.0 |
| 20260906071501 | 75 | 248 | 0.0 | 1.0 | 0.00 | 0.04 | 0.00 | 92 | 1008.1 |
| 20260906071001 | 75 | 293 | 0.0 | 1.0 | 0.00 | 0.04 | 0.00 | 92 | 1008.2 |
| 20260906070501 | 75 | 293 | 0.0 | 2.0 | 0.00 | 0.04 | 0.00 | 92 | 1008.2 |
| 20260906070031 | 75 | 282 | 0.0 | 2.0 | 0.00 | 0.78 | 0.00 | 92 | 1008.1 |
| 20260906070002 | 75 | 282 | 0.0 | 2.0 | 0.00 | 0.04 | 0.00 | 92 | 1008.2 |
| 20260906065502 | 75 | 223 | 0.0 | 2.0 | 0.00 | 0.04 | 0.00 | 92 | 1008.4 |
| 20260906065049 | 75 | 274 | 0.0 | 3.0 | 0.00 | 0.04 | 0.00 | 92 | 1008.4 |
| 20260906065033 | 75 | 223 | 0.0 | 3.0 | 0.00 | 0.04 | 0.00 | 92 | 1008.4 |
| 20260906064001 | 75 | 255 | 0.0 | 2.0 | 0.00 | 0.04 | 0.00 | 92 | 1008.9 |
| 20260906063501 | 75 | 242 | 0.0 | 1.0 | 0.00 | 0.04 | 0.00 | 91 | 1008.9 |
| 20260906063031 | 75 | 242 | 0.0 | 2.0 | 0.00 | 0.78 | 0.78 | 91 | 1008.8 |
| 20260906063002 | 75 | 244 | 0.0 | 2.0 | 0.00 | 0.04 | 0.00 | 91 | 1008.9 |
| 20260906062501 | 75 | 212 | 0.0 | 2.0 | 0.00 | 0.04 | 0.00 | 91 | 1008.9 |
| 20260906062001 | 75 | 215 | 0.0 | 2.0 | 0.00 | 0.04 | 0.00 | 91 | 1008.9 |
| 20260906061531 | 75 | 211 | 0.0 | 3.0 | 0.00 | 0.78 | 0.78 | 91 | 1008.8 |
| 20260906061503 | 75 | 226 | 1.0 | 3.0 | 0.00 | 0.04 | 0.00 | 91 | 1008.9 |
| 20260906061001 | 75 | 215 | 1.0 | 3.0 | 0.00 | 0.04 | 0.00 | 91 | 1009.2 |
| 20260906060501 | 75 | 229 | 0.0 | 2.0 | 0.00 | 0.04 | 0.00 | 91 | 1009.2 |
| 20260906060031 | 74 | 216 | 0.0 | 1.0 | 0.00 | 0.78 | 0.78 | 91 | 1009.1 |
| 20260906060001 | 75 | 216 | 0.0 | 1.0 | 0.00 | 0.04 | 0.00 | 91 | 1009.2 |
| 20260906055501 | 75 | 202 | 0.0 | 3.0 | 0.00 | 0.04 | 0.00 | 91 | 1009.5 |
| 20260906055002 | 75 | 198 | 0.0 | 3.0 | 0.00 | 0.04 | 0.00 | 91 | 1009.5 |
| 20260906054509 | 74 | 207 | 0.0 | 1.0 | 0.00 | 0.78 | 0.78 | 91 | 1009.4 |
| 20260906054504 | 75 | 207 | 0.0 | 1.0 | 0.00 | 0.04 | 0.00 | 91 | 1009.5 |
| 20260906053956 | 75 | 207 | 0.0 | 1.0 | 0.00 | 0.04 | 0.00 | 91 | 1009.5 |
| 20260906053450 | 75 | 148 | 0.0 | 1.0 | 0.00 | 0.04 | 0.00 | 91 | 1009.5 |
| 20260906053003 | 74 | 220 | 0.0 | 1.0 | 0.00 | 0.78 | 0.78 | 91 | 1009.4 |
| 20260906052942 | 75 | 221 | 0.0 | 1.0 | 0.00 | 0.04 | 0.00 | 91 | 1009.5 |
| 20260906052439 | 75 | 221 | 0.0 | 1.0 | 0.00 | 0.04 | 0.00 | 91 | 1009.7 |
| 20260906052232 | 75 | 166 | 0.0 | 2.0 | 0.00 | 0.04 | 0.00 | 92 | 1009.7 |
| 20260906051503 | 74 | 215 | 0.0 | 2.0 | 0.00 | 0.78 | 0.78 | 92 | 1009.6 |
| 20260906051436 | 75 | 215 | 0.0 | 2.0 | 0.00 | 0.04 | 0.00 | 92 | 1009.7 |
| 20260906050935 | 75 | 201 | 0.0 | 2.0 | 0.00 | 0.04 | 0.00 | 92 | 1009.8 |
| 20260906050435 | 75 | 215 | 0.0 | 2.0 | 0.00 | 0.04 | 0.00 | 92 | 1009.8 |
| 20260906050005 | 74 | 203 | 0.0 | 1.0 | 0.00 | 0.78 | 0.78 | 92 | 1009.7 |
| 20260906045937 | 75 | 212 | 0.0 | 1.0 | 0.00 | 0.04 | 0.00 | 92 | 1009.9 |
| 20260906045436 | 75 | 119 | 0.0 | 0.0 | 0.00 | 0.04 | 0.00 | 92 | 1009.9 |
| 20260906044933 | 75 | 119 | 0.0 | 1.0 | 0.00 | 0.04 | 0.00 | 92 | 1009.9 |
| 20260906044506 | 75 | 119 | 0.0 | 1.0 | 0.00 | 0.78 | 0.78 | 92 | 1009.8 |
| 20260906044434 | 75 | 119 | 0.0 | 1.0 | 0.00 | 0.04 | 0.00 | 92 | 1010.0 |
| 20260906043934 | 75 | 140 | 0.0 | 1.0 | 0.00 | 0.04 | 0.00 | 92 | 1010.0 |
| 20260906043433 | 75 | 225 | 0.0 | 3.0 | 0.00 | 0.04 | 0.00 | 92 | 1010.0 |
| 20260906043003 | 74 | 255 | 0.0 | 3.0 | 0.00 | 0.78 | 0.78 | 92 | 1009.9 |
| 20260906042932 | 75 | 255 | 1.0 | 3.0 | 0.00 | 0.04 | 0.00 | 92 | 1010.0 |
| 20260906042729 | 75 | 226 | 1.0 | 4.0 | 0.00 | 0.04 | 0.00 | 92 | 1010.0 |
| 20260906041933 | 75 | 222 | 1.0 | 4.0 | 0.00 | 0.04 | 0.00 | 92 | 1010.0 |
| 20260906041559 | 74 | 192 | 1.0 | 3.0 | 0.00 | 0.78 | 0.78 | 92 | 1009.9 |
| 20260906041434 | 75 | 246 | 1.0 | 3.0 | 0.00 | 0.04 | 0.00 | 92 | 1010.0 |
| 20260906041224 | 75 | 226 | 1.0 | 4.0 | 0.00 | 0.04 | 0.00 | 92 | 1009.9 |
| 20260906040431 | 75 | 238 | 1.0 | 4.0 | 0.00 | 0.04 | 0.00 | 92 | 1009.9 |
| 20260906040041 | 74 | 190 | 0.0 | 4.0 | 0.00 | 0.78 | 0.78 | 92 | 1009.8 |
| 20260906035931 | 75 | 216 | 0.0 | 4.0 | 0.00 | 0.04 | 0.04 | 92 | 1009.9 |
| 20260906035431 | 75 | 215 | 1.0 | 4.0 | 0.00 | 0.04 | 0.04 | 92 | 1009.9 |
| 20260906034932 | 75 | 155 | 0.0 | 3.0 | 0.00 | 0.04 | 0.04 | 92 | 1009.9 |
| 20260906034550 | 75 | 215 | 0.0 | 3.0 | 0.00 | 0.78 | 0.78 | 93 | 1009.8 |
| 20260906034432 | 75 | 212 | 1.0 | 3.0 | 0.00 | 0.04 | 0.04 | 92 | 1009.7 |
| 20260906033930 | 75 | 225 | 1.0 | 4.0 | 0.00 | 0.04 | 0.04 | 93 | 1009.7 |
| 20260906033431 | 75 | 226 | 1.0 | 4.0 | 0.00 | 0.04 | 0.04 | 92 | 1009.7 |
| 20260906033035 | 75 | 228 | 0.0 | 4.0 | 0.00 | 0.78 | 0.78 | 92 | 1009.6 |
| 20260906032932 | 75 | 225 | 1.0 | 5.0 | 0.00 | 0.04 | 0.04 | 92 | 1009.9 |
| 20260906032414 | 75 | 206 | 1.0 | 5.0 | 0.00 | 0.04 | 0.04 | 92 | 1009.9 |
| 20260906031903 | 75 | 219 | 1.0 | 4.0 | 0.00 | 0.04 | 0.04 | 92 | 1009.9 |
| 20260906031533 | 75 | 209 | 0.0 | 2.0 | 0.00 | 0.78 | 0.78 | 92 | 1009.8 |
| 20260906031401 | 75 | 199 | 0.0 | 2.0 | 0.00 | 0.04 | 0.04 | 92 | 1009.9 |
| 20260906030900 | 75 | 127 | 0.0 | 1.0 | 0.00 | 0.04 | 0.04 | 92 | 1009.9 |
| 20260906030401 | 75 | 113 | 0.0 | 2.0 | 0.00 | 0.04 | 0.04 | 92 | 1009.9 |
| 20260906030021 | 75 | 113 | 0.0 | 2.0 | 0.00 | 0.78 | 0.78 | 93 | 1009.8 |
| 20260906025900 | 75 | 113 | 0.0 | 2.0 | 0.00 | 0.04 | 0.04 | 93 | 1009.9 |
| 20260906025401 | 75 | 215 | 0.0 | 1.0 | 0.00 | 0.04 | 0.04 | 92 | 1009.9 |
| 20260906024903 | 75 | 215 | 0.0 | 1.0 | 0.00 | 0.04 | 0.04 | 92 | 1009.9 |
| 20260906024505 | 74 | 215 | 0.0 | 1.0 | 0.00 | 0.78 | 0.78 | 92 | 1009.8 |
| 20260906024402 | 75 | 215 | 0.0 | 1.0 | 0.00 | 0.04 | 0.04 | 92 | 1010.0 |
| 20260906023902 | 75 | 215 | 0.0 | 1.0 | 0.00 | 0.04 | 0.04 | 92 | 1010.0 |
| 20260906023403 | 75 | 215 | 0.0 | 0.0 | 0.00 | 0.04 | 0.04 | 92 | 1010.0 |
| 20260906023003 | 74 | 215 | 0.0 | 1.0 | 0.00 | 0.78 | 0.78 | 92 | 1009.9 |
| 20260906022903 | 75 | 215 | 0.0 | 2.0 | 0.00 | 0.04 | 0.04 | 92 | 1009.9 |
| 20260906022401 | 75 | 215 | 0.0 | 2.0 | 0.01 | 0.04 | 0.04 | 92 | 1009.9 |
| 20260906022150 | 75 | 173 | 0.0 | 3.0 | 0.01 | 0.04 | 0.04 | 92 | 1009.9 |
| 20260906021651 | 75 | 138 | 0.0 | 3.0 | 0.01 | 0.04 | 0.04 | 92 | 1009.9 |
| 20260906021616 | 75 | 138 | 0.0 | 3.0 | 0.01 | 0.78 | 0.78 | 92 | 1009.8 |
| 20260906020903 | 75 | 141 | 0.0 | 3.0 | 0.02 | 0.04 | 0.04 | 92 | 1009.9 |
| 20260906020403 | 75 | 221 | 0.0 | 3.0 | 0.02 | 0.04 | 0.04 | 92 | 1009.9 |
| 20260906020101 | 75 | 236 | 0.0 | 4.0 | 0.02 | 0.78 | 0.78 | 92 | 1009.8 |
| 20260906020002 | 75 | 242 | 0.0 | 4.0 | 0.02 | 0.78 | 0.78 | 92 | 1009.8 |
| 20260906015905 | 75 | 242 | 1.0 | 4.0 | 0.02 | 0.02 | 0.04 | 92 | 1009.9 |
| 20260906015402 | 75 | 213 | 1.0 | 4.0 | 0.03 | 0.02 | 0.04 | 92 | 1009.9 |
| 20260906014902 | 75 | 265 | 1.0 | 4.0 | 0.03 | 0.02 | 0.04 | 92 | 1009.9 |
| 20260906014552 | 75 | 244 | 2.0 | 4.0 | 0.03 | 0.78 | 0.78 | 92 | 1009.8 |
| 20260906014403 | 75 | 217 | 1.0 | 4.0 | 0.03 | 0.02 | 0.04 | 92 | 1010.0 |
| 20260906013902 | 75 | 217 | 1.0 | 4.0 | 0.03 | 0.02 | 0.04 | 92 | 1010.0 |
| 20260906013401 | 75 | 196 | 1.0 | 3.0 | 0.03 | 0.02 | 0.04 | 92 | 1010.0 |
| 20260906013039 | 75 | 215 | 1.0 | 2.0 | 0.03 | 0.78 | 0.78 | 92 | 1009.9 |
| 20260906012901 | 75 | 220 | 0.0 | 2.0 | 0.03 | 0.02 | 0.04 | 92 | 1010.1 |
| 20260906012402 | 75 | 193 | 0.0 | 3.0 | 0.02 | 0.02 | 0.03 | 92 | 1010.1 |
| 20260906011902 | 75 | 134 | 1.0 | 3.0 | 0.01 | 0.02 | 0.03 | 92 | 1010.1 |
| 20260906011531 | 75 | 131 | 0.0 | 5.0 | 0.02 | 0.77 | 0.77 | 92 | 1010.0 |
| 20260906011401 | 75 | 113 | 2.0 | 5.0 | 0.01 | 0.02 | 0.03 | 92 | 1010.5 |
| 20260906010902 | 75 | 135 | 3.0 | 7.0 | 0.01 | 0.02 | 0.02 | 92 | 1010.5 |
| 20260906010655 | 75 | 146 | 3.0 | 7.0 | 0.01 | 0.02 | 0.02 | 92 | 1010.5 |
| 20260906010020 | 75 | 128 | 4.0 | 7.0 | 0.01 | 0.76 | 0.76 | 92 | 1010.3 |
| 20260906005859 | 75 | 140 | 3.0 | 6.0 | 0.00 | 0.01 | 0.02 | 92 | 1010.8 |
| 20260906005359 | 76 | 153 | 5.0 | 10.0 | 0.00 | 0.01 | 0.01 | 92 | 1010.8 |
| 20260906004859 | 76 | 107 | 5.0 | 10.0 | 0.00 | 0.01 | 0.01 | 91 | 1010.8 |
| 20260906004503 | 75 | 138 | 4.0 | 10.0 | 0.00 | 0.75 | 0.75 | 91 | 1010.6 |
| 20260906004358 | 76 | 126 | 5.0 | 10.0 | 0.00 | 0.01 | 0.01 | 91 | 1010.5 |
| 20260906003859 | 76 | 132 | 5.0 | 10.0 | 0.00 | 0.01 | 0.01 | 91 | 1010.5 |
| 20260906003358 | 77 | 128 | 4.0 | 8.0 | 0.00 | 0.01 | 0.01 | 91 | 1010.5 |
| 20260906003004 | 77 | 121 | 5.0 | 8.0 | 0.00 | 0.75 | 0.75 | 91 | 1010.4 |
| 20260906002859 | 77 | 131 | 3.0 | 8.0 | 0.00 | 0.01 | 0.01 | 91 | 1010.4 |
| 20260906002656 | 77 | 144 | 3.0 | 0.0 | 0.00 | 0.01 | 0.01 | 90 | 1010.4 |
| 20260906001733 | 78 | 221 | 3.0 | 8.0 | 0.00 | 0.01 | 0.01 | 89 | 1010.4 |
| 20260906001605 | 78 | 178 | 3.0 | 9.0 | 0.00 | 0.75 | 0.75 | 89 | 1010.3 |
| 20260906001232 | 78 | 138 | 2.0 | 9.0 | 0.00 | 0.01 | 0.01 | 89 | 1010.1 |
| 20260906001031 | 78 | 164 | 1.0 | 9.0 | 0.00 | 0.01 | 0.01 | 89 | 1010.1 |
| 20260906000234 | 79 | 109 | 2.0 | 5.0 | 0.00 | 0.01 | 0.01 | 89 | 1010.1 |
| 20260906000040 | 78 | 113 | 2.0 | 5.0 | 0.00 | 0.75 | 0.75 | 89 | 1010.0 |
| 20260905235730 | 78 | 125 | 2.0 | 5.0 | 0.00 | 0.01 | 0.01 | 89 | 1010.2 |
| 20260905235231 | 78 | 100 | 2.0 | 5.0 | 0.00 | 0.01 | 0.01 | 90 | 1010.2 |
| 20260905234812 | 78 | 56 | 5.0 | 13.0 | 0.00 | 0.01 | 0.01 | 92 | 1010.5 |
| 20260905234801 | 78 | 46 | 3.0 | 11.0 | 0.00 | 0.01 | 0.01 | 91 | 1010.2 |
| 20260905233730 | 78 | 28 | 5.0 | 13.0 | 0.00 | 0.01 | 0.01 | 93 | 1010.5 |
| 20260905233231 | 78 | 329 | 4.0 | 11.0 | 0.00 | 0.01 | 0.01 | 93 | 1010.5 |
| 20260905233015 | 78 | 317 | 4.0 | 11.0 | 0.00 | 0.75 | 0.75 | 93 | 1010.4 |
| 20260905232730 | 78 | 315 | 2.0 | 11.0 | 0.00 | 0.01 | 0.01 | 93 | 1009.4 |
| 20260905232232 | 78 | 74 | 1.0 | 2.0 | 0.00 | 0.01 | 0.01 | 93 | 1009.4 |
| 20260905231729 | 78 | 74 | 2.0 | 2.0 | 0.00 | 0.01 | 0.01 | 93 | 1009.4 |
| 20260905231510 | 77 | 101 | 1.0 | 2.0 | 0.00 | 0.75 | 0.75 | 93 | 1009.2 |
| 20260905231229 | 78 | 105 | 1.0 | 2.0 | 0.00 | 0.01 | 0.01 | 93 | 1009.4 |
| 20260905230730 | 78 | 105 | 2.0 | 5.0 | 0.00 | 0.01 | 0.01 | 93 | 1009.4 |
| 20260905230229 | 78 | 110 | 2.0 | 5.0 | 0.00 | 0.01 | 0.01 | 94 | 1009.4 |
| 20260905230004 | 77 | 120 | 2.0 | 5.0 | 0.00 | 0.75 | 0.75 | 93 | 1009.3 |
| 20260905225730 | 77 | 125 | 3.0 | 5.0 | 0.00 | 0.01 | 0.01 | 93 | 1009.4 |
| 20260905225230 | 77 | 86 | 4.0 | 8.0 | 0.00 | 0.01 | 0.01 | 93 | 1009.4 |
| 20260905225026 | 77 | 119 | 5.0 | 10.0 | 0.00 | 0.01 | 0.01 | 93 | 1009.4 |
| 20260905224554 | 77 | 123 | 5.0 | 10.0 | 0.00 | 0.75 | 0.75 | 93 | 1009.3 |
| 20260905224229 | 77 | 101 | 4.0 | 10.0 | 0.00 | 0.01 | 0.01 | 94 | 1009.8 |
| 20260905223729 | 77 | 105 | 3.0 | 8.0 | 0.00 | 0.01 | 0.01 | 93 | 1009.8 |
| 20260905223230 | 77 | 90 | 3.0 | 7.0 | 0.00 | 0.01 | 0.01 | 94 | 1009.8 |
| 20260905223048 | 77 | 92 | 3.0 | 6.0 | 0.00 | 0.75 | 0.75 | 93 | 1009.7 |
| 20260905222730 | 77 | 78 | 3.0 | 5.0 | 0.00 | 0.01 | 0.01 | 94 | 1008.9 |
| 20260905222231 | 77 | 103 | 2.0 | 5.0 | 0.00 | 0.01 | 0.01 | 94 | 1008.9 |
| 20260905221731 | 77 | 114 | 1.0 | 3.0 | 0.00 | 0.01 | 0.01 | 94 | 1008.9 |
| 20260905221534 | 77 | 101 | 0.0 | 3.0 | 0.00 | 0.75 | 0.75 | 94 | 1008.8 |
| 20260905221521 | 77 | 98 | 1.0 | 3.0 | 0.00 | 0.01 | 0.01 | 94 | 1008.8 |
| 20260905220733 | 77 | 86 | 1.0 | 3.0 | 0.00 | 0.01 | 0.01 | 93 | 1008.8 |
| 20260905220229 | 77 | 101 | 0.0 | 2.0 | 0.00 | 0.01 | 0.01 | 94 | 1008.8 |
| 20260905220024 | 77 | 82 | 0.0 | 2.0 | 0.00 | 0.75 | 0.75 | 94 | 1008.7 |
| 20260905215730 | 77 | 64 | 1.0 | 5.0 | 0.00 | 0.01 | 0.01 | 93 | 1009.0 |
| 20260905215228 | 77 | 69 | 1.0 | 5.0 | 0.01 | 0.01 | 0.01 | 94 | 1009.0 |
| 20260905214728 | 77 | 100 | 2.0 | 9.0 | 0.01 | 0.01 | 0.01 | 93 | 1009.0 |
| 20260905214559 | 77 | 109 | 0.0 | 9.0 | 0.01 | 0.75 | 0.75 | 93 | 1008.9 |
| 20260905214229 | 77 | 80 | 4.0 | 9.0 | 0.01 | 0.01 | 0.01 | 93 | 1009.6 |
| 20260905214019 | 77 | 110 | 4.0 | 8.0 | 0.01 | 0.01 | 0.01 | 94 | 1009.6 |
| 20260905213226 | 77 | 105 | 3.0 | 6.0 | 0.01 | 0.01 | 0.01 | 94 | 1009.6 |
| 20260905213033 | 76 | 109 | 4.0 | 6.0 | 0.20 | 0.75 | 0.75 | 94 | 1009.4 |
| 20260905212725 | 77 | 82 | 2.0 | 5.0 | 0.01 | 0.01 | 0.01 | 94 | 1009.5 |
| 20260905212221 | 77 | 126 | 1.0 | 5.0 | 0.01 | 0.01 | 0.01 | 94 | 1009.5 |
| 20260905211722 | 76 | 113 | 1.0 | 4.0 | 0.01 | 0.01 | 0.01 | 94 | 1009.5 |
| 20260905211531 | 75 | 318 | 0.0 | 2.0 | 0.75 | 0.75 | 0.75 | 94 | 1009.4 |
| 20260905211223 | 75 | 348 | 1.0 | 3.0 | 0.01 | 0.01 | 0.01 | 93 | 1009.5 |
| 20260905211012 | 74 | 17 | 1.0 | 3.0 | 0.01 | 0.01 | 0.01 | 93 | 1009.5 |
| 20260905210232 | 74 | 75 | 1.0 | 2.0 | 0.01 | 0.01 | 0.01 | 93 | 1009.5 |
| 20260905210030 | 74 | 75 | 0.0 | 2.0 | 0.75 | 0.75 | 0.75 | 93 | 1009.3 |
| 20260905205727 | 74 | 0.0 | 0.0 | 0.00 | 0.00 | 0.00 | 92 | ||
| 20260905205633 | 74 | 48 | 2.0 | 6.0 | 0.00 | 0.00 | 0.00 | 92 | 1009.4 |
| 20260905202737 | 79 | 39 | 9.0 | 24.0 | 0.39 | 0.39 | 0.33 | 84 | 1008.9 |
| 20260905202237 | 86 | 343 | 5.0 | 21.0 | 0.03 | 0.03 | 0.03 | 79 | 1008.9 |
| 20260905201738 | 88 | 329 | 6.0 | 14.0 | 0.00 | 0.00 | 0.00 | 82 | 1008.9 |
| 20260905201533 | 88 | 74 | 6.0 | 14.0 | 0.00 | 0.00 | 0.00 | 82 | 1008.7 |
| 20260905201238 | 89 | 131 | 7.0 | 14.0 | 0.00 | 0.00 | 0.00 | 82 | 1008.3 |
| 20260905200738 | 89 | 121 | 10.0 | 16.0 | 0.00 | 0.00 | 0.00 | 81 | 1008.3 |
| 20260905200237 | 89 | 97 | 11.0 | 16.0 | 0.00 | 0.00 | 0.00 | 81 | 1008.3 |
| 20260905200054 | 89 | 80 | 10.0 | 16.0 | 0.00 | 0.00 | 0.00 | 81 | 1008.1 |
| 20260905195738 | 89 | 146 | 9.0 | 15.0 | 0.00 | 0.00 | 0.00 | 81 | 1008.9 |
| 20260905195236 | 89 | 111 | 9.0 | 14.0 | 0.00 | 0.00 | 0.00 | 80 | 1008.9 |